Keene, NH

7:51 PM EDT on March 27, 2017 (GMT -0400)
Dillant-Hopkins

Weather History for KEEN - November, 2013

Change the Weather History Date:

Tuesday, November 19, 2013

  Actual Average Record
Temperature  
Mean Temperature 36 °F -  
Max Temperature 44 °F 46 °F 72 °F (1941)
Min Temperature 28 °F 27 °F 3 °F (1936)
Degree Days  
Heating Degree Days 29    
Moisture  
Dew Point 17 °F    
Average Humidity 46    
Maximum Humidity 60    
Minimum Humidity 38    
Precipitation  
Precipitation 0.00 in - - ()
Sea Level Pressure  
Sea Level Pressure 29.99 in    
Wind  
Wind Speed 10 mph (NW)    
Max Wind Speed 20 mph    
Max Gust Speed 26 mph    
Visibility 10 miles    
Events      
Averages and records for this station are not official NWS values.
T = Trace of Precipitation, MM = Missing Value Source: NWS Daily Summary

Daily Weather History Graph

Daily Weather History Graph

Search for Another Location

Airport or City:

Trip Planner

Search our weather history database for the weather conditions in past years. The results will help you decide how hot, cold, wet, or windy it might be!

Date:

Astronomy

Nov. 19, 2013 Rise Set
Actual Time 6:46 AM EST 4:22 PM EST
Civil Twilight 6:15 AM EST 4:53 PM EST
Nautical Twilight 5:41 AM EST 5:27 PM EST
Astronomical Twilight 5:07 AM EST 6:01 PM EST
Moon 6:10 PM EST (11/19) 8:23 AM EST (11/19)
Length of Visible Light 10h 37m
Length of Day
9h 35m
Waning Gibbous, 96% of the Moon is Illuminated
Nov 19
Waning Gibbous
Nov 25
Last Quarter
Dec 2
New
Dec 9
First Quarter
Dec 17
Full

Hourly Weather History & Observations

Time (EST) Temp. Windchill Dew Point Humidity Pressure Visibility Wind Dir Wind Speed Gust Speed Precip Events Conditions
12:15 AM 44.6 °F 38.4 °F 21.2 °F 39% 29.70 in 10.0 mi West 12.7 mph 21.9 mph N/A   Scattered Clouds
12:35 AM 44.6 °F 38.1 °F 21.2 °F 39% 29.69 in 10.0 mi West 13.8 mph 21.9 mph N/A   Clear
12:55 AM 42.8 °F 37.0 °F 21.2 °F 42% 29.71 in 10.0 mi West 10.4 mph 16.1 mph N/A   Clear
1:15 AM 42.8 °F 38.0 °F 23.0 °F 46% 29.71 in 10.0 mi WSW 8.1 mph - N/A   Clear
1:35 AM 41.0 °F - 23.0 °F 49% 29.72 in 10.0 mi Calm Calm - N/A   Scattered Clouds
1:55 AM 42.8 °F 35.1 °F 23.0 °F 46% 29.72 in 10.0 mi WNW 16.1 mph 21.9 mph N/A   Overcast
2:15 AM 41.0 °F 33.5 °F 21.2 °F 45% 29.72 in 10.0 mi NW 13.8 mph 20.7 mph N/A   Mostly Cloudy
2:35 AM 41.0 °F 34.7 °F 21.2 °F 45% 29.72 in 10.0 mi West 10.4 mph 18.4 mph N/A   Overcast
2:55 AM 41.0 °F 37.1 °F 23.0 °F 49% 29.73 in 10.0 mi WSW 5.8 mph - N/A   Overcast
3:15 AM 39.2 °F 35.0 °F 21.2 °F 49% 29.73 in 10.0 mi WSW 5.8 mph - N/A   Overcast
3:35 AM 39.2 °F 34.2 °F 21.2 °F 49% 29.75 in 10.0 mi West 6.9 mph - N/A   Overcast
3:55 AM 39.2 °F 35.0 °F 21.2 °F 49% 29.75 in 10.0 mi West 5.8 mph - N/A   Overcast
4:15 AM 39.2 °F 33.0 °F 21.2 °F 49% 29.75 in 10.0 mi West 9.2 mph 18.4 mph N/A   Overcast
4:35 AM 39.2 °F 32.5 °F 21.2 °F 49% 29.75 in 10.0 mi West 10.4 mph 24.2 mph N/A   Overcast
4:55 AM 39.2 °F 32.5 °F 21.2 °F 49% 29.75 in 10.0 mi West 10.4 mph 21.9 mph N/A   Overcast
5:15 AM 39.2 °F 32.0 °F 21.2 °F 49% 29.76 in 10.0 mi WNW 11.5 mph 18.4 mph N/A   Overcast
5:35 AM 39.2 °F 32.5 °F 21.2 °F 49% 29.78 in 10.0 mi WNW 10.4 mph 16.1 mph N/A   Overcast
5:55 AM 37.4 °F 31.4 °F 24.8 °F 60% 29.79 in 10.0 mi NW 8.1 mph 19.6 mph N/A   Overcast
6:15 AM 37.4 °F 30.3 °F 24.8 °F 60% 29.81 in 10.0 mi WNW 10.4 mph - N/A   Overcast
6:35 AM 35.6 °F 27.5 °F 21.2 °F 56% 29.84 in 10.0 mi NW 11.5 mph 25.3 mph N/A   Overcast
6:55 AM 35.6 °F 27.5 °F 21.2 °F 56% 29.85 in 10.0 mi NW 11.5 mph 17.3 mph N/A   Overcast
7:15 AM 35.6 °F 28.0 °F 19.4 °F 52% 29.87 in 10.0 mi NNW 10.4 mph - N/A   Overcast
7:35 AM 35.6 °F 27.1 °F 15.8 °F 44% 29.88 in 10.0 mi NW 12.7 mph 21.9 mph N/A   Overcast
7:55 AM 35.6 °F 24.8 °F 14.0 °F 41% 29.90 in 10.0 mi WNW 19.6 mph 23.0 mph N/A   Partly Cloudy
8:15 AM 35.6 °F 27.1 °F 14.0 °F 41% 29.91 in 10.0 mi WNW 12.7 mph 20.7 mph N/A   Clear
8:35 AM 35.6 °F 28.6 °F 14.0 °F 41% 29.92 in 10.0 mi NNW 9.2 mph 18.4 mph N/A   Mostly Cloudy
8:55 AM 35.6 °F 27.1 °F 14.0 °F 41% 29.93 in 10.0 mi NW 12.7 mph 23.0 mph N/A   Overcast
9:15 AM 35.6 °F 27.1 °F 15.8 °F 44% 29.94 in 10.0 mi NNW 12.7 mph 21.9 mph N/A   Overcast
9:35 AM 35.6 °F 25.9 °F 14.0 °F 41% 29.96 in 10.0 mi North 16.1 mph 19.6 mph N/A   Overcast
9:55 AM 35.6 °F 27.1 °F 12.2 °F 38% 29.96 in 10.0 mi NNW 12.7 mph 26.5 mph N/A   Overcast
10:15 AM 35.6 °F 27.1 °F 12.2 °F 38% 29.96 in 10.0 mi NW 12.7 mph 21.9 mph N/A   Mostly Cloudy
10:35 AM 37.4 °F 28.2 °F 15.8 °F 41% 29.97 in 10.0 mi NNW 16.1 mph 21.9 mph N/A   Mostly Cloudy
10:55 AM 37.4 °F 27.8 °F 15.8 °F 41% 29.97 in 10.0 mi NNW 17.3 mph 24.2 mph N/A   Partly Cloudy
11:15 AM 37.4 °F 28.2 °F 14.0 °F 38% 29.98 in 10.0 mi NNW 16.1 mph 24.2 mph N/A   Partly Cloudy
11:35 AM 37.4 °F 28.9 °F 15.8 °F 41% 29.98 in 10.0 mi NNW 13.8 mph 25.3 mph N/A   Partly Cloudy
11:55 AM 37.4 °F 29.3 °F 15.8 °F 41% 29.99 in 10.0 mi NW 12.7 mph 20.7 mph N/A   Clear
12:15 PM 37.4 °F 30.3 °F 15.8 °F 41% 29.99 in 10.0 mi NW 10.4 mph 19.6 mph N/A   Partly Cloudy
12:35 PM 37.4 °F 29.3 °F 15.8 °F 41% 30.00 in 10.0 mi WNW 12.7 mph 20.7 mph N/A   Clear
12:55 PM 39.2 °F 30.8 °F 15.8 °F 39% 30.00 in 10.0 mi NNW 15.0 mph 23.0 mph N/A   Clear
1:15 PM 39.2 °F 31.2 °F 15.8 °F 39% 30.01 in 10.0 mi NNW 13.8 mph 21.9 mph N/A   Clear
1:35 PM 39.2 °F 32.5 °F 15.8 °F 39% 30.01 in 10.0 mi WNW 10.4 mph 18.4 mph N/A   Mostly Cloudy
1:55 PM 39.2 °F 32.0 °F 15.8 °F 39% 30.01 in 10.0 mi WNW 11.5 mph 19.6 mph N/A   Mostly Cloudy
2:15 PM 39.2 °F 31.6 °F 17.6 °F 42% 30.03 in 10.0 mi NW 12.7 mph 18.4 mph N/A   Mostly Cloudy
2:35 PM 39.2 °F 33.6 °F 15.8 °F 39% 30.03 in 10.0 mi NW 8.1 mph 18.4 mph N/A   Partly Cloudy
2:55 PM 37.4 °F 29.3 °F 15.8 °F 41% 30.05 in 10.0 mi WNW 12.7 mph 20.7 mph N/A   Scattered Clouds
3:15 PM 37.4 °F 29.3 °F 15.8 °F 41% 30.06 in 10.0 mi WNW 12.7 mph 24.2 mph N/A   Scattered Clouds
3:35 PM 37.4 °F 32.1 °F 15.8 °F 41% 30.07 in 10.0 mi NW 6.9 mph - N/A   Clear
3:55 PM 37.4 °F 30.3 °F 15.8 °F 41% 30.09 in 10.0 mi WNW 10.4 mph 16.1 mph N/A   Clear
4:15 PM 35.6 °F 28.6 °F 15.8 °F 44% 30.10 in 10.0 mi WNW 9.2 mph - N/A   Clear
4:35 PM 35.6 °F 27.1 °F 14.0 °F 41% 30.12 in 10.0 mi WNW 12.7 mph 17.3 mph N/A   Clear
4:55 PM 35.6 °F 29.9 °F 15.8 °F 44% 30.12 in 10.0 mi WNW 6.9 mph 17.3 mph N/A   Clear
5:15 PM 35.6 °F 31.7 °F 15.8 °F 44% 30.13 in 10.0 mi West 4.6 mph - N/A   Clear
5:35 PM 33.8 °F 29.6 °F 14.0 °F 44% 30.15 in 10.0 mi West 4.6 mph - N/A   Partly Cloudy
5:55 PM 33.8 °F 30.8 °F 14.0 °F 44% 30.16 in 10.0 mi SW 3.5 mph - N/A   Mostly Cloudy
6:15 PM 33.8 °F 29.6 °F 14.0 °F 44% 30.17 in 10.0 mi West 4.6 mph - N/A   Overcast
6:35 PM 33.8 °F 28.6 °F 15.8 °F 48% 30.19 in 10.0 mi WNW 5.8 mph - N/A   Overcast
6:55 PM 33.8 °F 29.6 °F 15.8 °F 48% 30.20 in 10.0 mi WNW 4.6 mph - N/A   Overcast
7:15 PM 33.8 °F 30.8 °F 15.8 °F 48% 30.21 in 10.0 mi NW 3.5 mph - N/A   Scattered Clouds
7:35 PM 32.0 °F 27.5 °F 14.0 °F 48% 30.22 in 10.0 mi NW 4.6 mph - N/A   Mostly Cloudy
7:55 PM 32.0 °F 27.5 °F 15.8 °F 51% 30.23 in 10.0 mi North 4.6 mph - N/A   Mostly Cloudy
8:15 PM 30.2 °F 21.3 °F 15.8 °F 55% 30.24 in 10.0 mi North 10.4 mph - N/A   Scattered Clouds
8:35 PM 30.2 °F 22.6 °F 15.8 °F 55% 30.25 in 10.0 mi North 8.1 mph - N/A   Partly Cloudy
8:55 PM 30.2 °F 18.9 °F 15.8 °F 55% 30.25 in 10.0 mi North 16.1 mph 21.9 mph N/A   Clear
9:15 PM 30.2 °F 18.9 °F 14.0 °F 51% 30.26 in 10.0 mi North 16.1 mph 21.9 mph N/A   Clear
9:35 PM 30.2 °F 21.3 °F 14.0 °F 51% 30.27 in 10.0 mi North 10.4 mph 17.3 mph N/A   Clear
9:55 PM 30.2 °F 20.2 °F 12.2 °F 47% 30.27 in 10.0 mi NNW 12.7 mph 16.1 mph N/A   Clear
10:15 PM 30.2 °F 25.4 °F 12.2 °F 47% 30.29 in 10.0 mi NNW 4.6 mph - N/A   Partly Cloudy
10:35 PM 30.2 °F 25.4 °F 12.2 °F 47% 30.30 in 10.0 mi North 4.6 mph - N/A   Scattered Clouds
10:55 PM 28.4 °F - 12.2 °F 51% 30.31 in 10.0 mi Calm Calm - N/A   Mostly Cloudy
11:15 PM 28.4 °F 23.3 °F 12.2 °F 51% 30.32 in 10.0 mi North 4.6 mph - N/A   Scattered Clouds
11:35 PM 28.4 °F 22.2 °F 12.2 °F 51% 30.32 in 10.0 mi NNW 5.8 mph - N/A   Clear
11:55 PM 28.4 °F 22.2 °F 10.4 °F 47% 30.32 in 10.0 mi NNW 5.8 mph - N/A   Partly Cloudy